date,time,SUV Intensity [MED/Hr],UV Index,Daily total [MED],Since Last [MED]
06/02/2022,00:04:19,0.001,0.0,0.0,0.0
06/02/2022,00:05:36,0.000,0.0,0.0,0.0
06/02/2022,00:07:29,0.001,0.0,0.0,0.0
06/02/2022,00:08:19,0.000,0.0,0.0,0.0
06/02/2022,00:09:19,0.001,0.0,0.0,0.0
06/02/2022,00:10:20,0.000,0.0,0.0,0.0
06/02/2022,00:11:19,-0.000,0.0,0.0,0.0
06/02/2022,00:12:19,0.000,0.0,0.0,0.0
06/02/2022,00:13:28,-0.000,0.0,0.0,0.0
06/02/2022,00:14:19,0.000,0.0,0.0,0.0
06/02/2022,00:15:19,-0.000,0.0,0.0,0.0
06/02/2022,00:16:21,0.001,0.0,0.0,0.0
06/02/2022,00:17:20,0.000,0.0,0.0,0.0
06/02/2022,00:18:20,0.001,0.0,0.0,0.0
06/02/2022,00:19:20,0.000,0.0,0.0,0.0
06/02/2022,00:20:20,0.000,0.0,0.0,0.0
06/02/2022,00:21:19,0.000,0.0,0.0,0.0
06/02/2022,00:22:19,0.000,0.0,0.0,0.0
06/02/2022,00:23:19,-0.000,0.0,0.0,0.0
06/02/2022,00:24:28,-0.000,0.0,0.0,0.0
06/02/2022,00:25:19,0.000,0.0,0.0,0.0
06/02/2022,00:26:19,0.000,0.0,0.0,0.0
06/02/2022,00:27:20,0.001,0.0,0.0,0.0
06/02/2022,00:28:20,-0.001,0.0,0.0,0.0
06/02/2022,00:29:19,0.000,0.0,0.0,0.0
06/02/2022,00:30:19,0.000,0.0,0.0,0.0
06/02/2022,00:31:20,0.001,0.0,0.0,0.0
06/02/2022,00:32:20,-0.001,0.0,0.0,0.0
06/02/2022,00:33:20,0.000,0.0,0.0,0.0
06/02/2022,00:34:27,0.000,0.0,0.0,0.0
06/02/2022,00:35:20,0.000,0.0,0.0,0.0
06/02/2022,00:36:28,0.001,0.0,0.0,0.0
06/02/2022,00:37:21,0.000,0.0,0.0,0.0
06/02/2022,00:38:27,0.000,0.0,0.0,0.0
06/02/2022,00:39:20,0.000,0.0,0.0,0.0
06/02/2022,00:40:21,0.000,0.0,0.0,0.0
06/02/2022,00:41:20,0.000,0.0,0.0,0.0
06/02/2022,00:42:20,-0.000,0.0,0.0,0.0
06/02/2022,00:43:19,0.001,0.0,0.0,0.0
06/02/2022,00:44:20,0.000,0.0,0.0,0.0
06/02/2022,00:45:19,0.000,0.0,0.0,0.0
06/02/2022,00:46:19,0.001,0.0,0.0,0.0
06/02/2022,00:47:19,0.000,0.0,0.0,0.0
06/02/2022,00:48:28,0.000,0.0,0.0,0.0
06/02/2022,00:49:19,-0.001,0.0,0.0,0.0
06/02/2022,00:50:20,0.000,0.0,0.0,0.0
06/02/2022,00:51:28,0.001,0.0,0.0,0.0
06/02/2022,00:52:20,0.000,0.0,0.0,0.0
06/02/2022,00:53:20,0.000,0.0,0.0,0.0
06/02/2022,00:54:20,0.001,0.0,0.0,0.0
06/02/2022,00:55:20,0.000,0.0,0.0,0.0
06/02/2022,00:56:20,0.000,0.0,0.0,0.0
06/02/2022,00:57:20,0.000,0.0,0.0,0.0
06/02/2022,00:58:21,-0.000,0.0,0.0,0.0
06/02/2022,00:59:19,0.000,0.0,0.0,0.0
06/02/2022,01:00:20,0.000,0.0,0.0,0.0
06/02/2022,01:01:28,0.001,0.0,0.0,0.0
06/02/2022,01:02:19,0.000,0.0,0.0,0.0
06/02/2022,01:03:20,0.000,0.0,0.0,0.0
06/02/2022,01:04:19,-0.000,0.0,0.0,0.0
06/02/2022,01:05:20,0.000,0.0,0.0,0.0
06/02/2022,01:06:19,0.000,0.0,0.0,0.0
06/02/2022,01:07:20,0.000,0.0,0.0,0.0
06/02/2022,01:08:19,-0.001,0.0,0.0,0.0
06/02/2022,01:09:27,0.000,0.0,0.0,0.0
06/02/2022,01:10:19,-0.000,0.0,0.0,0.0
06/02/2022,01:11:19,0.000,0.0,0.0,0.0
06/02/2022,01:12:29,0.000,0.0,0.0,0.0
06/02/2022,01:13:20,0.000,0.0,0.0,0.0
06/02/2022,01:14:19,0.000,0.0,0.0,0.0
06/02/2022,01:15:28,-0.001,0.0,0.0,0.0
06/02/2022,01:16:20,0.000,0.0,0.0,0.0
06/02/2022,01:17:19,-0.000,0.0,0.0,0.0
06/02/2022,01:18:20,0.001,0.0,0.0,0.0
06/02/2022,01:19:20,0.000,0.0,0.0,0.0
06/02/2022,01:20:19,0.001,0.0,0.0,0.0
06/02/2022,01:21:21,0.000,0.0,0.0,0.0
06/02/2022,01:22:20,0.000,0.0,0.0,0.0
06/02/2022,01:23:20,0.000,0.0,0.0,0.0
06/02/2022,01:24:21,0.000,0.0,0.0,0.0
06/02/2022,01:25:19,0.000,0.0,0.0,0.0
06/02/2022,01:26:28,0.000,0.0,0.0,0.0
06/02/2022,01:27:19,0.000,0.0,0.0,0.0
06/02/2022,01:28:20,0.001,0.0,0.0,0.0
06/02/2022,01:29:20,0.001,0.0,0.0,0.0
06/02/2022,01:30:20,0.000,0.0,0.0,0.0
06/02/2022,01:31:19,0.000,0.0,0.0,0.0
06/02/2022,01:32:20,0.000,0.0,0.0,0.0
06/02/2022,01:33:20,0.000,0.0,0.0,0.0
06/02/2022,01:34:20,0.000,0.0,0.0,0.0
06/02/2022,01:35:19,0.001,0.0,0.0,0.0
06/02/2022,01:36:20,0.000,0.0,0.0,0.0
06/02/2022,01:37:19,0.000,0.0,0.0,0.0
06/02/2022,01:38:20,0.001,0.0,0.0,0.0
06/02/2022,01:39:28,0.000,0.0,0.0,0.0
06/02/2022,01:40:20,0.000,0.0,0.0,0.0
06/02/2022,01:41:20,-0.000,0.0,0.0,0.0
06/02/2022,01:42:20,0.001,0.0,0.0,0.0
06/02/2022,01:43:28,0.000,0.0,0.0,0.0
06/02/2022,01:44:19,0.000,0.0,0.0,0.0
06/02/2022,01:45:20,0.001,0.0,0.0,0.0
06/02/2022,01:46:19,0.001,0.0,0.0,0.0
06/02/2022,01:47:19,0.000,0.0,0.0,0.0
06/02/2022,01:48:21,0.000,0.0,0.0,0.0
06/02/2022,01:49:19,0.000,0.0,0.0,0.0
06/02/2022,01:50:28,0.000,0.0,0.0,0.0
06/02/2022,01:51:19,0.000,0.0,0.0,0.0
06/02/2022,01:52:19,0.001,0.0,0.0,0.0
06/02/2022,01:53:29,0.000,0.0,0.0,0.0
06/02/2022,01:54:20,0.000,0.0,0.0,0.0
06/02/2022,01:55:20,0.000,0.0,0.0,0.0
06/02/2022,01:56:20,0.000,0.0,0.0,0.0
06/02/2022,01:57:20,0.000,0.0,0.0,0.0
06/02/2022,01:58:19,0.001,0.0,0.0,0.0
06/02/2022,01:59:20,0.000,0.0,0.0,0.0
06/02/2022,02:00:20,0.001,0.0,0.0,0.0
06/02/2022,02:01:19,0.000,0.0,0.0,0.0
06/02/2022,02:02:19,0.001,0.0,0.0,0.0
06/02/2022,02:03:20,0.000,0.0,0.0,0.0
06/02/2022,02:04:20,0.000,0.0,0.0,0.0
06/02/2022,02:05:20,0.001,0.0,0.0,0.0
06/02/2022,02:06:20,-0.001,0.0,0.0,0.0
06/02/2022,02:07:19,0.000,0.0,0.0,0.0
06/02/2022,02:08:19,-0.001,0.0,0.0,0.0
06/02/2022,02:09:20,0.000,0.0,0.0,0.0
06/02/2022,02:10:20,0.001,0.0,0.0,0.0
06/02/2022,02:11:20,0.001,0.0,0.0,0.0
06/02/2022,02:12:20,0.000,0.0,0.0,0.0
06/02/2022,02:13:19,0.000,0.0,0.0,0.0
06/02/2022,02:14:28,-0.001,0.0,0.0,0.0
06/02/2022,02:15:19,0.000,0.0,0.0,0.0
06/02/2022,02:16:20,0.000,0.0,0.0,0.0
06/02/2022,02:17:19,0.000,0.0,0.0,0.0
06/02/2022,02:18:19,0.000,0.0,0.0,0.0
06/02/2022,02:19:20,0.000,0.0,0.0,0.0
06/02/2022,02:20:20,0.000,0.0,0.0,0.0
06/02/2022,02:21:20,-0.000,0.0,0.0,0.0
06/02/2022,02:22:20,-0.000,0.0,0.0,0.0
06/02/2022,02:23:20,0.000,0.0,0.0,0.0
06/02/2022,02:24:20,-0.000,0.0,0.0,0.0
06/02/2022,02:25:21,-0.000,0.0,0.0,0.0
06/02/2022,02:26:20,0.001,0.0,0.0,0.0
06/02/2022,02:27:21,0.000,0.0,0.0,0.0
06/02/2022,02:28:19,-0.000,0.0,0.0,0.0
06/02/2022,02:29:20,-0.000,0.0,0.0,0.0
06/02/2022,02:30:20,0.000,0.0,0.0,0.0
06/02/2022,02:31:20,-0.000,0.0,0.0,0.0
06/02/2022,02:32:19,-0.001,0.0,0.0,0.0
06/02/2022,02:33:19,0.001,0.0,0.0,0.0
06/02/2022,02:34:19,-0.001,0.0,0.0,0.0
06/02/2022,02:35:19,-0.000,0.0,0.0,0.0
06/02/2022,02:36:20,-0.000,0.0,0.0,0.0
06/02/2022,02:37:20,-0.000,0.0,0.0,0.0
06/02/2022,02:38:28,0.000,0.0,0.0,0.0
06/02/2022,02:39:19,-0.000,0.0,0.0,0.0
06/02/2022,02:40:20,-0.000,0.0,0.0,0.0
06/02/2022,02:42:20,-0.001,0.0,0.0,0.0
06/02/2022,02:43:19,-0.000,0.0,0.0,0.0
06/02/2022,02:44:19,-0.000,0.0,0.0,0.0
06/02/2022,02:45:20,-0.002,0.0,0.0,0.0
06/02/2022,02:46:19,-0.000,0.0,0.0,0.0
06/02/2022,02:47:19,-0.000,0.0,0.0,0.0
06/02/2022,02:48:28,-0.000,0.0,0.0,0.0
06/02/2022,02:49:19,-0.001,0.0,0.0,0.0
06/02/2022,02:50:20,-0.000,0.0,0.0,0.0
06/02/2022,02:51:20,-0.001,0.0,0.0,0.0
06/02/2022,02:52:20,0.001,0.0,0.0,0.0
06/02/2022,02:53:20,-0.000,0.0,0.0,0.0
06/02/2022,02:54:20,-0.000,0.0,0.0,0.0
06/02/2022,02:55:19,0.000,0.0,0.0,0.0
06/02/2022,02:56:20,-0.001,0.0,0.0,0.0
06/02/2022,02:57:20,-0.000,0.0,0.0,0.0
06/02/2022,02:58:19,0.000,0.0,0.0,0.0
06/02/2022,02:59:20,0.000,0.0,0.0,0.0
06/02/2022,03:00:20,0.000,0.0,0.0,0.0
06/02/2022,03:01:20,-0.001,0.0,0.0,0.0
06/02/2022,03:02:28,-0.000,0.0,0.0,0.0
06/02/2022,03:03:20,-0.000,0.0,0.0,0.0
06/02/2022,03:04:19,0.001,0.0,0.0,0.0
06/02/2022,03:05:19,-0.001,0.0,0.0,0.0
06/02/2022,03:06:20,-0.001,0.0,0.0,0.0
06/02/2022,03:07:20,-0.000,0.0,0.0,0.0
06/02/2022,03:08:20,-0.000,0.0,0.0,0.0
06/02/2022,03:09:20,-0.000,0.0,0.0,0.0
06/02/2022,03:10:20,-0.001,0.0,0.0,0.0
06/02/2022,03:11:20,-0.000,0.0,0.0,0.0
06/02/2022,03:12:19,-0.000,0.0,0.0,0.0
06/02/2022,03:13:28,-0.000,0.0,0.0,0.0
06/02/2022,03:14:19,0.000,0.0,0.0,0.0
06/02/2022,03:15:19,-0.000,0.0,0.0,0.0
06/02/2022,03:16:20,-0.001,0.0,0.0,0.0
06/02/2022,03:17:20,-0.002,0.0,0.0,0.0
06/02/2022,03:18:20,-0.001,0.0,0.0,0.0
06/02/2022,03:19:20,0.000,0.0,0.0,0.0
06/02/2022,03:20:19,0.001,0.0,0.0,0.0
06/02/2022,03:21:20,-0.000,0.0,0.0,0.0
06/02/2022,03:22:20,-0.000,0.0,0.0,0.0
06/02/2022,03:23:19,-0.000,0.0,0.0,0.0
06/02/2022,03:24:20,-0.000,0.0,0.0,0.0
06/02/2022,03:25:20,-0.000,0.0,0.0,0.0
06/02/2022,03:26:20,-0.000,0.0,0.0,0.0
06/02/2022,03:27:19,-0.000,0.0,0.0,0.0
06/02/2022,03:28:20,0.000,0.0,0.0,0.0
06/02/2022,03:29:20,-0.000,0.0,0.0,0.0
06/02/2022,03:30:20,-0.000,0.0,0.0,0.0
06/02/2022,03:31:19,-0.000,0.0,0.0,0.0
06/02/2022,03:32:20,0.001,0.0,0.0,0.0
06/02/2022,03:33:28,0.001,0.0,0.0,0.0
06/02/2022,03:34:20,0.000,0.0,0.0,0.0
06/02/2022,03:35:20,0.001,0.0,0.0,0.0
06/02/2022,03:36:20,-0.000,0.0,0.0,0.0
06/02/2022,03:37:20,0.001,0.0,0.0,0.0
06/02/2022,03:38:20,0.000,0.0,0.0,0.0
06/02/2022,03:39:20,0.000,0.0,0.0,0.0
06/02/2022,03:40:20,-0.001,0.0,0.0,0.0
06/02/2022,03:41:20,0.000,0.0,0.0,0.0
06/02/2022,03:42:20,-0.001,0.0,0.0,0.0
06/02/2022,03:43:28,0.001,0.0,0.0,0.0
06/02/2022,03:44:20,-0.000,0.0,0.0,0.0
06/02/2022,03:45:20,-0.001,0.0,0.0,0.0
06/02/2022,03:46:28,0.001,0.0,0.0,0.0
06/02/2022,03:47:19,0.000,0.0,0.0,0.0
06/02/2022,03:48:19,0.000,0.0,0.0,0.0
06/02/2022,03:49:21,0.000,0.0,0.0,0.0
06/02/2022,03:50:19,0.000,0.0,0.0,0.0
06/02/2022,03:51:21,0.000,0.0,0.0,0.0
06/02/2022,03:52:20,0.001,0.0,0.0,0.0
06/02/2022,03:53:19,0.000,0.0,0.0,0.0
06/02/2022,03:54:20,0.001,0.0,0.0,0.0
06/02/2022,03:55:20,-0.000,0.0,0.0,0.0
06/02/2022,03:56:20,0.000,0.0,0.0,0.0
06/02/2022,03:57:20,0.001,0.0,0.0,0.0
06/02/2022,03:58:20,0.000,0.0,0.0,0.0
06/02/2022,03:59:20,-0.000,0.0,0.0,0.0
06/02/2022,04:00:20,0.000,0.0,0.0,0.0
06/02/2022,04:01:19,-0.001,0.0,0.0,0.0
06/02/2022,04:02:20,0.001,0.0,0.0,0.0
06/02/2022,04:03:20,0.000,0.0,0.0,0.0
06/02/2022,04:04:20,0.000,0.0,0.0,0.0
06/02/2022,04:05:20,-0.001,0.0,0.0,0.0
06/02/2022,04:06:20,0.001,0.0,0.0,0.0
06/02/2022,04:07:20,0.000,0.0,0.0,0.0
06/02/2022,04:08:19,-0.001,0.0,0.0,0.0
06/02/2022,04:09:20,0.000,0.0,0.0,0.0
06/02/2022,04:10:28,0.000,0.0,0.0,0.0
06/02/2022,04:11:20,0.000,0.0,0.0,0.0
06/02/2022,04:12:20,0.000,0.0,0.0,0.0
06/02/2022,04:13:20,-0.001,0.0,0.0,0.0
06/02/2022,04:14:20,0.000,0.0,0.0,0.0
06/02/2022,04:15:19,0.001,0.0,0.0,0.0
06/02/2022,04:16:20,0.000,0.0,0.0,0.0
06/02/2022,04:17:20,-0.000,0.0,0.0,0.0
06/02/2022,04:18:20,0.000,0.0,0.0,0.0
06/02/2022,04:19:20,0.000,0.0,0.0,0.0
06/02/2022,04:20:20,0.000,0.0,0.0,0.0
06/02/2022,04:21:20,0.000,0.0,0.0,0.0
06/02/2022,04:22:20,0.001,0.0,0.0,0.0
06/02/2022,04:23:20,0.000,0.0,0.0,0.0
06/02/2022,04:24:20,0.000,0.0,0.0,0.0
06/02/2022,04:25:20,-0.001,0.0,0.0,0.0
06/02/2022,04:26:20,-0.000,0.0,0.0,0.0
06/02/2022,04:27:20,-0.001,0.0,0.0,0.0
06/02/2022,04:28:28,0.000,0.0,0.0,0.0
06/02/2022,04:29:19,-0.000,0.0,0.0,0.0
06/02/2022,04:30:20,0.001,0.0,0.0,0.0
06/02/2022,04:31:29,-0.000,0.0,0.0,0.0
06/02/2022,04:32:19,0.000,0.0,0.0,0.0
06/02/2022,04:33:20,0.000,0.0,0.0,0.0
06/02/2022,04:34:20,-0.000,0.0,0.0,0.0
06/02/2022,04:35:19,0.001,0.0,0.0,0.0
06/02/2022,04:36:21,-0.001,0.0,0.0,0.0
06/02/2022,04:37:19,-0.000,0.0,0.0,0.0
06/02/2022,04:38:20,-0.000,0.0,0.0,0.0
06/02/2022,04:39:19,-0.001,0.0,0.0,0.0
06/02/2022,04:40:20,-0.000,0.0,0.0,0.0
06/02/2022,04:41:20,-0.000,0.0,0.0,0.0
06/02/2022,04:42:20,-0.000,0.0,0.0,0.0
06/02/2022,04:43:20,-0.000,0.0,0.0,0.0
06/02/2022,04:44:20,-0.000,0.0,0.0,0.0
06/02/2022,04:45:20,0.001,0.0,0.0,0.0
06/02/2022,04:46:20,-0.000,0.0,0.0,0.0
06/02/2022,04:47:20,0.000,0.0,0.0,0.0
06/02/2022,04:48:20,-0.001,0.0,0.0,0.0
06/02/2022,04:49:20,-0.001,0.0,0.0,0.0
06/02/2022,04:50:19,0.000,0.0,0.0,0.0
06/02/2022,04:51:20,-0.000,0.0,0.0,0.0
06/02/2022,04:52:33,-0.001,0.0,0.0,0.0
06/02/2022,04:54:20,-0.000,0.0,0.0,0.0
06/02/2022,04:55:28,-0.000,0.0,0.0,0.0
06/02/2022,04:56:20,-0.000,0.0,0.0,0.0
06/02/2022,04:57:20,-0.000,0.0,0.0,0.0
06/02/2022,04:58:20,0.001,0.0,0.0,0.0
06/02/2022,04:59:19,0.001,0.0,0.0,0.0
06/02/2022,05:00:21,-0.001,0.0,0.0,0.0
06/02/2022,05:01:19,-0.000,0.0,0.0,0.0
06/02/2022,05:02:19,-0.000,0.0,0.0,0.0
06/02/2022,05:03:20,-0.000,0.0,0.0,0.0
06/02/2022,05:05:13,-0.000,0.0,0.0,0.0
06/02/2022,05:06:29,-0.000,0.0,0.0,0.0
06/02/2022,05:07:19,0.000,0.0,0.0,0.0
06/02/2022,05:08:20,-0.000,0.0,0.0,0.0
06/02/2022,05:09:20,-0.001,0.0,0.0,0.0
06/02/2022,05:10:19,-0.000,0.0,0.0,0.0
06/02/2022,05:11:20,0.001,0.0,0.0,0.0
06/02/2022,05:12:28,-0.000,0.0,0.0,0.0
06/02/2022,05:13:20,-0.000,0.0,0.0,0.0
06/02/2022,05:14:28,-0.000,0.0,0.0,0.0
06/02/2022,05:15:29,0.001,0.0,0.0,0.0
06/02/2022,05:16:27,0.000,0.0,0.0,0.0
06/02/2022,05:17:20,-0.000,0.0,0.0,0.0
06/02/2022,05:18:20,0.000,0.0,0.0,0.0
06/02/2022,05:19:20,-0.001,0.0,0.0,0.0
06/02/2022,05:20:20,-0.000,0.0,0.0,0.0
06/02/2022,05:21:21,-0.000,0.0,0.0,0.0
06/02/2022,05:22:20,-0.000,0.0,0.0,0.0
06/02/2022,05:23:28,-0.000,0.0,0.0,0.0
06/02/2022,05:24:20,0.000,0.0,0.0,0.0
06/02/2022,05:25:20,-0.000,0.0,0.0,0.0
06/02/2022,05:26:29,-0.000,0.0,0.0,0.0
06/02/2022,05:27:20,-0.000,0.0,0.0,0.0
06/02/2022,05:28:20,-0.000,0.0,0.0,0.0
06/02/2022,05:29:20,-0.000,0.0,0.0,0.0
06/02/2022,05:30:20,-0.000,0.0,0.0,0.0
06/02/2022,05:31:20,0.000,0.0,0.0,0.0
06/02/2022,05:32:20,-0.000,0.0,0.0,0.0
06/02/2022,05:33:21,0.000,0.0,0.0,0.0
06/02/2022,05:34:20,-0.001,0.0,0.0,0.0
06/02/2022,05:35:20,0.000,0.0,0.0,0.0
06/02/2022,05:36:29,-0.001,0.0,0.0,0.0
06/02/2022,05:37:20,0.000,0.0,0.0,0.0
06/02/2022,05:38:20,0.000,0.0,0.0,0.0
06/02/2022,05:39:20,0.001,0.0,0.0,0.0
06/02/2022,05:40:20,0.000,0.0,0.0,0.0
06/02/2022,05:41:20,-0.001,0.0,0.0,0.0
06/02/2022,05:42:20,0.000,0.0,0.0,0.0
06/02/2022,05:43:20,0.000,0.0,0.0,0.0
06/02/2022,05:44:22,0.001,0.0,0.0,0.0
06/02/2022,05:45:20,-0.001,0.0,0.0,0.0
06/02/2022,05:46:22,0.000,0.0,0.0,0.0
06/02/2022,05:47:21,0.001,0.0,0.0,0.0
06/02/2022,05:48:20,-0.000,0.0,0.0,0.0
06/02/2022,05:49:07,-0.000,0.0,0.0,0.0
06/02/2022,05:50:21,0.000,0.0,0.0,0.0
06/02/2022,05:51:21,0.000,0.0,0.0,0.0
06/02/2022,05:52:19,-0.001,0.0,0.0,0.0
06/02/2022,05:53:28,0.000,0.0,0.0,0.0
06/02/2022,05:54:20,0.000,0.0,0.0,0.0
06/02/2022,05:55:20,0.000,0.0,0.0,0.0
06/02/2022,05:56:20,0.001,0.0,0.0,0.0
06/02/2022,05:57:21,0.001,0.0,0.0,0.0
06/02/2022,05:58:20,-0.001,0.0,0.0,0.0
06/02/2022,05:59:20,-0.000,0.0,0.0,0.0
06/02/2022,06:00:19,0.000,0.0,0.0,0.0
06/02/2022,06:01:29,0.000,0.0,0.0,0.0
06/02/2022,06:02:20,0.001,0.0,0.0,0.0
06/02/2022,06:03:20,-0.000,0.0,0.0,0.0
06/02/2022,06:04:20,-0.001,0.0,0.0,0.0
06/02/2022,06:05:20,-0.000,0.0,0.0,0.0
06/02/2022,06:06:20,0.000,0.0,0.0,0.0
06/02/2022,06:07:20,-0.000,0.0,0.0,0.0
06/02/2022,06:08:20,0.000,0.0,0.0,0.0
06/02/2022,06:09:20,0.001,0.0,0.0,0.0
06/02/2022,06:10:20,0.000,0.0,0.0,0.0
06/02/2022,06:11:29,-0.000,0.0,0.0,0.0
06/02/2022,06:12:20,0.000,0.0,0.0,0.0
06/02/2022,06:13:20,-0.000,0.0,0.0,0.0
06/02/2022,06:14:28,0.001,0.0,0.0,0.0
06/02/2022,06:15:20,-0.001,0.0,0.0,0.0
06/02/2022,06:16:20,0.000,0.0,0.0,0.0
06/02/2022,06:17:20,-0.001,0.0,0.0,0.0
06/02/2022,06:18:20,0.001,0.0,0.0,0.0
06/02/2022,06:19:20,0.000,0.0,0.0,0.0
06/02/2022,06:20:21,0.000,0.0,0.0,0.0
06/02/2022,06:21:21,0.000,0.0,0.0,0.0
06/02/2022,06:22:20,0.000,0.0,0.0,0.0
06/02/2022,06:23:20,0.000,0.0,0.0,0.0
06/02/2022,06:24:28,0.000,0.0,0.0,0.0
06/02/2022,06:25:20,-0.000,0.0,0.0,0.0
06/02/2022,06:26:20,-0.000,0.0,0.0,0.0
06/02/2022,06:27:20,-0.001,0.0,0.0,0.0
06/02/2022,06:28:28,0.000,0.0,0.0,0.0
06/02/2022,06:29:20,0.000,0.0,0.0,0.0
06/02/2022,06:30:21,0.000,0.0,0.0,0.0
06/02/2022,06:31:20,0.000,0.0,0.0,0.0
06/02/2022,06:32:20,-0.001,0.0,0.0,0.0
06/02/2022,06:33:20,0.001,0.0,0.0,0.0
06/02/2022,06:34:23,-0.001,0.0,0.0,0.0
06/02/2022,06:35:20,0.000,0.0,0.0,0.0
06/02/2022,06:36:21,0.000,0.0,0.0,0.0
06/02/2022,06:37:20,0.000,0.0,0.0,0.0
06/02/2022,06:38:20,0.000,0.0,0.0,0.0
06/02/2022,06:39:20,-0.001,0.0,0.0,0.0
06/02/2022,06:40:20,0.001,0.0,0.0,0.0
06/02/2022,06:41:28,0.001,0.0,0.0,0.0
06/02/2022,06:42:28,0.000,0.0,0.0,0.0
06/02/2022,06:43:20,0.000,0.0,0.0,0.0
06/02/2022,06:44:21,0.000,0.0,0.0,0.0
06/02/2022,06:45:20,-0.001,0.0,0.0,0.0
06/02/2022,06:46:20,0.001,0.0,0.0,0.0
06/02/2022,06:47:20,0.000,0.0,0.0,0.0
06/02/2022,06:48:20,-0.001,0.0,0.0,0.0
06/02/2022,06:49:28,0.001,0.0,0.0,0.0
06/02/2022,06:50:20,0.001,0.0,0.0,0.0
06/02/2022,06:51:20,0.000,0.0,0.0,0.0
06/02/2022,06:52:20,-0.000,0.0,0.0,0.0
06/02/2022,06:53:20,-0.000,0.0,0.0,0.0
06/02/2022,06:54:29,0.001,0.0,0.0,0.0
06/02/2022,06:55:28,0.000,0.0,0.0,0.0
06/02/2022,06:56:20,0.000,0.0,0.0,0.0
06/02/2022,06:57:20,0.001,0.0,0.0,0.0
06/02/2022,06:58:20,0.000,0.0,0.0,0.0
06/02/2022,06:59:20,0.000,0.0,0.0,0.0
06/02/2022,07:00:20,0.000,0.0,0.0,0.0
06/02/2022,07:01:20,-0.000,0.0,0.0,0.0
06/02/2022,07:02:21,0.000,0.0,0.0,0.0
06/02/2022,07:03:20,-0.000,0.0,0.0,0.0
06/02/2022,07:04:20,0.000,0.0,0.0,0.0
06/02/2022,07:05:20,0.001,0.0,0.0,0.0
06/02/2022,07:06:20,0.000,0.0,0.0,0.0
06/02/2022,07:07:20,0.001,0.0,0.0,0.0
06/02/2022,07:08:20,0.000,0.0,0.0,0.0
06/02/2022,07:09:20,0.001,0.0,0.0,0.0
06/02/2022,07:10:20,-0.000,0.0,0.0,0.0
06/02/2022,07:11:20,0.000,0.0,0.0,0.0
06/02/2022,07:12:20,0.001,0.0,0.0,0.0
06/02/2022,07:13:20,0.000,0.0,0.0,0.0
06/02/2022,07:14:21,0.001,0.0,0.0,0.0
06/02/2022,07:15:20,0.000,0.0,0.0,0.0
06/02/2022,07:16:28,0.001,0.0,0.0,0.0
06/02/2022,07:17:20,-0.001,0.0,0.0,0.0
06/02/2022,07:18:20,0.000,0.0,0.0,0.0
06/02/2022,07:19:20,-0.001,0.0,0.0,0.0
06/02/2022,07:20:20,0.000,0.0,0.0,0.0
06/02/2022,07:21:20,0.000,0.0,0.0,0.0
06/02/2022,07:22:20,0.000,0.0,0.0,0.0
06/02/2022,07:23:20,0.000,0.0,0.0,0.0
06/02/2022,07:24:20,-0.001,0.0,0.0,0.0
06/02/2022,07:25:20,0.000,0.0,0.0,0.0
06/02/2022,07:26:28,0.000,0.0,0.0,0.0
06/02/2022,07:27:21,0.000,0.0,0.0,0.0
06/02/2022,07:28:20,0.000,0.0,0.0,0.0
06/02/2022,07:29:20,0.000,0.0,0.0,0.0
06/02/2022,07:30:28,0.000,0.0,0.0,0.0
06/02/2022,07:31:20,0.000,0.0,0.0,0.0
06/02/2022,07:32:21,0.001,0.0,0.0,0.0
06/02/2022,07:33:20,0.000,0.0,0.0,0.0
06/02/2022,07:34:20,0.001,0.0,0.0,0.0
06/02/2022,07:35:20,0.001,0.0,0.0,0.0
06/02/2022,07:36:20,0.001,0.0,0.0,0.0
06/02/2022,07:37:20,0.001,0.0,0.0,0.0
06/02/2022,07:38:20,0.001,0.0,0.0,0.0
06/02/2022,07:39:21,0.001,0.0,0.0,0.0
06/02/2022,07:40:29,0.001,0.0,0.0,0.0
06/02/2022,07:41:20,0.001,0.0,0.0,0.0
06/02/2022,07:42:20,0.001,0.0,0.0,0.0
06/02/2022,07:43:29,0.001,0.0,0.0,0.0
06/02/2022,07:44:20,0.001,0.0,0.0,0.0
06/02/2022,07:45:21,0.001,0.0,0.0,0.0
06/02/2022,07:46:20,0.001,0.0,0.0,0.0
06/02/2022,07:47:20,0.001,0.0,0.0,0.0
06/02/2022,07:48:20,0.001,0.0,0.0,0.0
06/02/2022,07:49:20,0.001,0.0,0.0,0.0
06/02/2022,07:50:20,0.001,0.0,0.0,0.0
06/02/2022,07:51:20,0.001,0.0,0.0,0.0
06/02/2022,07:52:12,0.001,0.0,0.0,0.0
06/02/2022,07:53:21,0.002,0.0,0.0,0.0
06/02/2022,07:54:21,0.002,0.0,0.0,0.0
06/02/2022,07:55:20,0.003,0.0,0.0,0.0
06/02/2022,07:56:21,0.003,0.0,0.0,0.0
06/02/2022,07:57:20,0.003,0.0,0.0,0.0
06/02/2022,07:58:20,0.004,0.0,0.0,0.0
06/02/2022,07:59:20,0.004,0.0,0.0,0.0
06/02/2022,08:00:20,0.003,0.0,0.0,0.0
06/02/2022,08:01:28,0.003,0.0,0.0,0.0
06/02/2022,08:02:20,0.002,0.0,0.0,0.0
06/02/2022,08:03:20,0.003,0.0,0.0,0.0
06/02/2022,08:04:28,0.006,0.0,0.0,0.0
06/02/2022,08:05:20,0.006,0.0,0.0,0.0
06/02/2022,08:06:20,0.006,0.0,0.0,0.0
06/02/2022,08:07:20,0.006,0.0,0.0,0.0
06/02/2022,08:08:20,0.007,0.0,0.0,0.0
06/02/2022,08:09:20,0.006,0.0,0.0,0.0
06/02/2022,08:10:20,0.005,0.0,0.0,0.0
06/02/2022,08:11:21,0.004,0.0,0.0,0.0
06/02/2022,08:12:20,0.004,0.0,0.0,0.0
06/02/2022,08:13:20,0.003,0.0,0.0,0.0
06/02/2022,08:14:21,0.004,0.0,0.0,0.0
06/02/2022,08:15:20,0.004,0.0,0.0,0.0
06/02/2022,08:16:20,0.005,0.0,0.0,0.0
06/02/2022,08:17:20,0.005,0.0,0.0,0.0
06/02/2022,08:18:29,0.005,0.0,0.0,0.0
06/02/2022,08:19:20,0.005,0.0,0.0,0.0
06/02/2022,08:20:21,0.005,0.0,0.0,0.0
06/02/2022,08:21:29,0.005,0.0,0.0,0.0
06/02/2022,08:22:20,0.006,0.0,0.0,0.0
06/02/2022,08:23:20,0.006,0.0,0.001,0.001
06/02/2022,08:24:21,0.005,0.0,0.001,0.0
06/02/2022,08:25:22,0.004,0.0,0.001,0.0
06/02/2022,08:26:21,0.004,0.0,0.001,0.0
06/02/2022,08:27:21,0.006,0.0,0.001,0.0
06/02/2022,08:28:21,0.009,0.0,0.001,0.0
06/02/2022,08:29:20,0.007,0.0,0.001,0.0
06/02/2022,08:30:20,0.010,0.0,0.001,0.0
06/02/2022,08:31:28,0.012,0.0,0.001,0.0
06/02/2022,08:32:20,0.013,0.0,0.001,0.0
06/02/2022,08:33:20,0.015,0.0,0.002,0.001
06/02/2022,08:34:20,0.017,0.0,0.002,0.0
06/02/2022,08:35:21,0.019,0.0,0.002,0.0
06/02/2022,08:36:20,0.020,0.0,0.003,0.001
06/02/2022,08:37:20,0.021,0.0,0.003,0.0
06/02/2022,08:38:22,0.022,0.0,0.003,0.0
06/02/2022,08:39:20,0.022,0.0,0.004,0.001
06/02/2022,08:40:20,0.024,0.0,0.004,0.0
06/02/2022,08:41:20,0.024,0.0,0.004,0.0
06/02/2022,08:42:20,0.025,0.0,0.005,0.001
06/02/2022,08:43:07,0.025,0.0,0.005,0.0
06/02/2022,08:44:21,0.025,0.0,0.006,0.001
06/02/2022,08:45:28,0.026,0.0,0.006,0.0
06/02/2022,08:46:20,0.027,0.0,0.007,0.001
06/02/2022,08:47:20,0.028,0.0,0.007,0.0
06/02/2022,08:48:20,0.027,0.0,0.007,0.0
06/02/2022,08:49:20,0.029,0.0,0.008,0.001
06/02/2022,08:50:20,0.029,0.0,0.008,0.0
06/02/2022,08:51:21,0.030,0.0,0.009,0.001
06/02/2022,08:52:20,0.031,0.0,0.009,-0.0
06/02/2022,08:53:20,0.033,0.0,0.01,0.001
06/02/2022,08:54:20,0.034,0.0,0.01,0.0
06/02/2022,08:55:21,0.035,0.0,0.011,0.001
06/02/2022,08:56:20,0.036,0.0,0.012,0.001
06/02/2022,08:57:20,0.037,0.0,0.012,0.0
06/02/2022,08:58:20,0.038,0.0,0.013,0.001
06/02/2022,08:59:20,0.039,0.0,0.014,0.001
06/02/2022,09:00:20,0.041,0.0,0.014,0.0
06/02/2022,09:01:20,0.043,0.0,0.015,0.001
06/02/2022,09:02:20,0.045,0.0,0.016,0.001
06/02/2022,09:03:21,0.047,0.0,0.016,0.0
06/02/2022,09:04:21,0.050,0.0,0.017,0.001
06/02/2022,09:05:21,0.050,0.0,0.018,0.001
06/02/2022,09:06:29,0.052,0.0,0.019,0.001
06/02/2022,09:07:21,0.052,0.0,0.02,0.001
06/02/2022,09:08:20,0.054,0.0,0.021,0.001
06/02/2022,09:09:20,0.055,0.0,0.021,0.0
06/02/2022,09:10:20,0.053,0.0,0.022,0.001
06/02/2022,09:11:20,0.054,0.0,0.023,0.001
06/02/2022,09:12:21,0.055,0.0,0.024,0.001
06/02/2022,09:13:20,0.055,0.0,0.025,0.001
06/02/2022,09:14:21,0.055,0.0,0.026,0.001
06/02/2022,09:15:21,0.057,0.0,0.027,0.001
06/02/2022,09:16:20,0.058,0.0,0.028,0.001
06/02/2022,09:17:20,0.060,0.0,0.029,0.001
06/02/2022,09:18:20,0.061,0.0,0.03,0.001
06/02/2022,09:19:20,0.062,0.0,0.031,0.001
06/02/2022,09:20:29,0.062,0.0,0.032,0.001
06/02/2022,09:21:20,0.063,0.0,0.033,0.001
06/02/2022,09:22:20,0.064,0.0,0.034,0.001
06/02/2022,09:23:20,0.065,0.0,0.035,0.001
06/02/2022,09:24:20,0.065,0.0,0.036,0.001
06/02/2022,09:25:20,0.067,0.0,0.037,0.001
06/02/2022,09:26:20,0.067,0.0,0.038,0.001
06/02/2022,09:27:20,0.069,0.0,0.04,0.002
06/02/2022,09:28:21,0.071,0.0,0.041,0.001
06/02/2022,09:29:20,0.074,0.0,0.042,0.001
06/02/2022,09:30:20,0.074,0.0,0.043,0.001
06/02/2022,09:31:20,0.074,0.0,0.044,0.001
06/02/2022,09:32:21,0.075,0.0,0.046,0.002
06/02/2022,09:33:29,0.078,0.0,0.047,0.001
06/02/2022,09:34:20,0.080,0.0,0.048,0.001
06/02/2022,09:35:20,0.081,0.0,0.05,0.002
06/02/2022,09:36:20,0.081,0.0,0.051,0.001
06/02/2022,09:37:20,0.081,0.0,0.052,0.001
06/02/2022,09:38:20,0.082,0.0,0.054,0.002
06/02/2022,09:39:20,0.082,0.0,0.055,0.001
06/02/2022,09:40:20,0.084,0.0,0.056,0.001
06/02/2022,09:41:20,0.084,0.0,0.058,0.002
06/02/2022,09:42:20,0.086,0.0,0.059,0.001
06/02/2022,09:43:20,0.086,0.0,0.061,0.002
06/02/2022,09:44:21,0.089,0.0,0.062,0.001
06/02/2022,09:45:20,0.088,0.0,0.064,0.002
06/02/2022,09:46:20,0.088,0.0,0.065,0.001
06/02/2022,09:47:28,0.089,0.0,0.067,0.002
06/02/2022,09:48:20,0.089,0.0,0.068,0.001
06/02/2022,09:49:20,0.090,0.0,0.069,0.001
06/02/2022,09:50:29,0.091,0.0,0.071,0.002
06/02/2022,09:51:20,0.093,0.0,0.073,0.002
06/02/2022,09:52:21,0.092,0.0,0.074,0.001
06/02/2022,09:53:21,0.093,0.0,0.076,0.002
06/02/2022,09:54:21,0.092,0.0,0.077,0.001
06/02/2022,09:55:21,0.093,0.0,0.079,0.002
06/02/2022,09:56:21,0.093,0.0,0.08,0.001
06/02/2022,09:57:20,0.093,0.0,0.082,0.002
06/02/2022,09:58:20,0.093,0.0,0.083,0.001
06/02/2022,09:59:20,0.093,0.0,0.085,0.002
06/02/2022,10:00:21,0.091,0.0,0.086,0.001
06/02/2022,10:01:20,0.092,0.0,0.088,0.002
06/02/2022,10:02:20,0.092,0.0,0.089,0.001
06/02/2022,10:03:21,0.094,0.0,0.091,0.002
06/02/2022,10:04:21,0.095,0.0,0.093,0.002
06/02/2022,10:05:21,0.095,0.0,0.094,0.001
06/02/2022,10:06:20,0.098,0.0,0.096,0.002
06/02/2022,10:07:21,0.102,0.0,0.097,0.001
06/02/2022,10:08:29,0.104,0.0,0.099,0.002
06/02/2022,10:09:21,0.104,0.0,0.101,0.002
06/02/2022,10:10:21,0.104,0.0,0.103,0.002
06/02/2022,10:11:21,0.106,0.0,0.104,0.001
06/02/2022,10:12:20,0.107,0.0,0.106,0.002
06/02/2022,10:13:20,0.109,0.0,0.108,0.002
06/02/2022,10:14:21,0.114,0.0,0.11,0.002
06/02/2022,10:15:22,0.118,0.0,0.112,0.002
06/02/2022,10:16:20,0.119,0.0,0.114,0.002
06/02/2022,10:17:21,0.119,0.0,0.116,0.002
06/02/2022,10:18:31,0.121,0.0,0.118,0.002
06/02/2022,10:19:20,0.123,0.0,0.12,0.002
06/02/2022,10:20:20,0.122,0.0,0.122,0.002
06/02/2022,10:21:28,0.124,0.0,0.124,0.002